Regional Weather Roundup
Issued by NWS Cleveland, OH

Home | Current Version | Previous Version | Text Only | Print | Product List | Glossary On
Versions: 1 2 3 4 5 6 7 8 9 10 11 12 13 14 15 16 17 18 19 20 21 22 23 24 25 26 27 28 29 30 31 32 33 34 35 36 37 38 39 40 41 42 43 44 45 46 47 48 49 50
000
ASUS41 KCLE 040410
RWRCLE
OHIO REGIONAL WEATHER ROUNDUP
NATIONAL WEATHER SERVICE WILMINGTON, OH
1100 PM EST TUE MAR 03 2015

NOTE: "FAIR" INDICATES FEW OR NO CLOUDS BELOW 12,000 FEET WITH NO
SIGNIFICANT WEATHER AND/OR OBSTRUCTIONS TO VISIBILITY.

OHZ001>008-015>018-024>027-034-035-043-044-040500-
   NORTHWEST OHIO

CITY           SKY/WX    TMP DP  RH WIND       PRES   REMARKS
DEFIANCE       CLOUDY    36  31  82 VRB7G17   29.79R
FINDLAY        CLOUDY    36  32  85 W15       29.78R
TOLEDO EXPRESS CLOUDY    35  30  82 W14       29.76R WCI  26
TOLEDO EXEC    CLOUDY    36  30  79 W16       29.78R
LIMA           CLOUDY    36  32  85 W17       29.80R
$$

OHZ009>014-019>023-028>033-038-089-040500-
   NORTHEAST OHIO

CITY           SKY/WX    TMP DP  RH WIND       PRES   REMARKS
CLE-HOPKINS    CLOUDY    37  32  82 W16G23    29.79R
CLE-LAKEFRONT  CLOUDY    36  33  89 W18       29.76R
CUY CO. ARPT   CLOUDY    39  32  75 W17G29    29.76R
LORAIN-ELYRIA  CLOUDY    36  33  89 W10       29.77R
ASHTABULA      CLOUDY    37  34  89 W16G24    29.74R
AKRON-CANTON   CLOUDY    40  35  83 W17       29.76R
WOOSTER        CLOUDY    37  35  92 W15       29.78R
MANSFIELD      CLOUDY    37  35  92 SW15G23   29.77R
YOUNGSTOWN     LGT RAIN  39  36  89 W15G24    29.74R
$$

OHZ042-051>053-060>062-070>072-077>081-040500-
  SOUTHWEST OHIO

CITY           SKY/WX    TMP DP  RH WIND       PRES   REMARKS
CINC-COVINGTON RAIN      43  39  87 NW9       29.86R FOG
CINC-LUNKEN    LGT RAIN  43  42  97 W8        29.87R
HAMILTON       LGT RAIN  41  40  96 VRB6      29.88R FOG
DAYTON         LGT RAIN  38  36  92 W10       29.85R
WRIGHT-PAT AFB LGT RAIN  38  37  96 W9        29.85R
DAYTON GENERAL LGT RAIN  39  38  96 W7        29.85R
WILMINGTON     RAIN      41  39  93 W17       29.84R FOG
$$

OHZ036-037-039>041-045>050-054>059-063>069-073>076-082>088-040500-
  CENTRAL AND SOUTHEAST OHIO

CITY           SKY/WX    TMP DP  RH WIND       PRES   REMARKS
COLUMBUS       LGT RAIN  37  36  96 W5        29.81S
OSU AIRPORT    MIX PCPN  37  36  96 W6        29.82R
BOLTON FIELD   LGT RAIN N/A N/A N/A W5        29.82R
RICKENBACK AFB LGT RAIN  38  38  97 W6        29.83R
NEWARK         LGT RAIN  41  38  89 W10       29.81R FOG
MARION         CLOUDY    36  34  92 W9        29.81R FOG
LANCASTER      RAIN      41  40  96 W6        29.83R FOG
ZANESVILLE     LGT RAIN  42  40  92 W8        29.80R
NEW PHILLY     RAIN      44  40  85 NW7       29.80R FOG
$$



USA.gov is the U.S. government's official web portal to all federal, state and local government web resources and services.